This is the latest recevied weather packets stored in our database for station/object HP1PCR-13. If no packets are shown the sender has not sent any weather packets the latest 10 day(s).
| Time | Temp. | Humidity | Pressure | Rain* | Wind** | Luminosity | Snow |
|---|---|---|---|---|---|---|---|
| 1777840235 | 33.33° C | 41% | 1003.5 hPa | - | - | - | - |
| 1777839630 | 33.33° C | 41% | 1003.5 hPa | - | - | - | - |
| 1777839026 | 33.33° C | 41% | 1003.5 hPa | - | - | - | - |
| 1777838422 | 33.33° C | 41% | 1003.4 hPa | - | - | - | - |
| 1777837818 | 33.33° C | 41% | 1003.7 hPa | - | - | - | - |
| 1777837213 | 33.33° C | 41% | 1003.5 hPa | - | - | - | - |
| 1777836610 | 33.33° C | 41% | 1003.6 hPa | - | - | - | - |
| 1777836005 | 33.33° C | 42% | 1003.6 hPa | - | - | - | - |
| 1777835401 | 33.33° C | 42% | 1003.7 hPa | - | - | - | - |
| 1777834797 | 33.33° C | 42% | 1004.1 hPa | - | - | - | - |
| 1777834193 | 33.33° C | 42% | 1004.2 hPa | - | - | - | - |
| 1777832985 | 33.33° C | 42% | 1004.7 hPa | - | - | - | - |
| 1777832380 | 33.33° C | 43% | 1004.9 hPa | - | - | - | - |
| 1777831173 | 32.78° C | 44% | 1005.1 hPa | - | - | - | - |
| 1777829964 | 32.78° C | 47% | 1005.1 hPa | - | - | - | - |
| 1777829360 | 32.78° C | 46% | 1005.1 hPa | - | - | - | - |
| 1777828756 | 32.78° C | 46% | 1005 hPa | - | - | - | - |
| 1777828151 | 32.78° C | 48% | 1005.3 hPa | - | - | - | - |
| 1777827547 | 32.78° C | 43% | 1005.6 hPa | - | - | - | - |
| 1777826943 | 32.78° C | 43% | 1005.8 hPa | - | - | - | - |
| 1777826340 | 32.78° C | 42% | 1005.9 hPa | - | - | - | - |
| 1777825735 | 32.78° C | 41% | 1006 hPa | - | - | - | - |
| 1777824527 | 32.78° C | 40% | 1006.1 hPa | - | - | - | - |
| 1777823923 | 32.22° C | 38% | 1006.1 hPa | - | - | - | - |
| 1777823319 | 32.22° C | 37% | 1006.2 hPa | - | - | - | - |
* Rain since midnight (hover to see other rain measurements)
** Current wind speed in m/s (hover to see current wind gust speed)